[[{"header":{"parameterUnit":"m.s-1","parameterCategory":1,"la1":30.2991,"la2":30.254,"lo1":-89.0895,"lo2":-89.0444,"dy":0.0017,"dx":0.0017,"nx":28,"ny":28,"refTime":"2024-09-25T21:00:00:Z","depth":0,"parameterNumber":2,"parameterNumberName":"U-component_of_WINDS"},"data":[0,0,0,0,0,0,0,0,0,0,0,0,0,0,0,0,0,0,0,0,0,0,0,0,0,0,0,0,0,0,0,0,0,0,0,0,0,0,0,0,0,0,0,0,0,0,0,0,0,0,0,0,0,0,0,0,0,0,6.8255,6.8256,0,6.8353,6.8354,6.8355,6.829,6.8287,6.8284,6.8282,6.8382,6.8388,6.8393,0,0,0,0,0,0,0,0,0,0,0,0,0,6.8012,6.8017,6.8255,6.8256,6.8257,6.8353,6.8354,6.8355,6.8291,6.8287,6.8284,6.828,6.8381,6.8387,6.8394,0,0,0,0,0,0,0,0,0,0,0,0,0,6.8115,6.8018,6.8255,6.8237,6.8236,6.8353,6.8354,6.8356,6.8292,6.8287,6.8283,6.8279,6.8378,6.8386,6.8395,6.8534,0,0,6.842,6.8423,0,0,0,0,0,0,0,0,6.8109,6.8124,6.8238,6.8238,6.8238,6.8305,6.8305,6.8416,6.8293,6.8271,6.8282,6.8276,6.836,6.837,6.8398,6.8539,6.8543,6.842,6.8425,6.8429,6.8431,0,0,0,0,0,0,0,6.8102,6.8119,6.8294,6.824,6.824,6.8224,6.8233,6.8326,6.8339,6.8272,6.8268,6.828,6.8359,6.839,6.84,6.8545,6.842,6.8427,6.8432,6.8436,6.8805,6.881,0,0,0,0,0,0,6.8096,6.8113,6.8291,6.8297,6.8161,6.8232,6.8242,6.8288,6.8338,6.8341,6.8284,6.8277,6.8378,6.839,6.8403,6.8569,6.8429,6.8436,6.8441,6.88,6.8806,6.8811,0,0,0,0,0,0,6.8091,6.8113,6.8287,6.8204,6.8225,6.8241,6.8292,6.8292,6.8323,6.8347,6.8349,6.8313,6.8375,6.8392,6.8502,6.8571,6.844,6.8447,6.8794,6.8802,6.8809,6.8902,0,0,0,0,0,0,6.8085,6.8111,6.8164,6.8206,6.823,6.8384,6.8296,6.8297,6.8337,6.8329,6.8375,6.8378,6.8373,6.849,6.851,6.858,6.8454,6.8788,6.8798,6.8806,6.8893,6.8912,6.8928,0,0,0,0,0,6.8076,6.8187,6.8167,6.8189,6.8296,6.8388,6.8402,6.8394,6.8343,6.8396,6.8412,6.8377,6.8561,6.8502,6.8524,6.8598,6.8784,6.8795,6.8806,6.8885,6.8908,6.8928,0,0,0,0,0,0,6.8153,6.8192,6.8171,6.8298,6.834,6.8377,6.8444,6.8418,6.8476,6.8466,6.8453,6.8464,6.8579,6.86,6.8533,6.8735,6.8664,6.868,6.8717,6.8739,6.8756,6.8748,6.8461,0,0,0,0,0,6.8186,6.8257,6.8287,6.8397,6.8419,6.8428,6.8468,6.8458,6.8501,6.8519,6.8542,6.8585,6.8653,6.8698,6.8761,6.8896,6.8905,6.8958,6.8976,6.899,6.9003,6.9075,6.9098,6.8848,6.8847,6.8847,0,0,6.8252,6.8282,6.8328,6.8413,6.8444,6.8518,6.8443,6.8525,6.8579,6.8531,6.8636,6.8655,6.8703,6.8826,6.8881,6.8846,6.9075,6.9004,6.9015,6.9021,6.9088,6.9112,6.9133,6.8855,6.8854,6.8852,0,0,6.841,6.8441,6.8535,6.8568,6.8617,6.8622,6.8645,6.8686,6.8697,6.8802,6.8767,6.8832,6.8949,6.8984,6.9017,6.919,6.9159,6.9212,6.9302,6.9372,6.9392,6.9409,6.9469,6.9491,6.9225,6.9226,6.9226,0,6.8487,6.8596,6.8587,6.8671,6.8709,6.8669,6.8764,6.8797,6.8864,6.8891,6.8851,6.8997,6.9026,6.9156,6.9198,6.9227,6.9252,6.9205,6.939,6.9407,6.9423,6.948,6.9503,6.9231,6.9231,6.923,6.923,0,6.8687,6.8764,6.8834,6.89,6.8946,6.9035,6.9039,6.9087,6.9074,6.9084,6.9192,6.9226,6.9295,6.9326,6.9314,6.9454,6.9431,6.9391,6.9319,6.9453,6.9506,6.9528,6.924,6.9238,6.9236,6.9234,0,0,6.8895,6.8955,6.898,6.9009,6.906,6.9119,6.9207,6.9275,6.9316,6.9364,6.9436,6.9537,6.95,6.9538,6.953,6.9592,6.9724,6.9544,6.9545,6.9574,6.9879,6.9907,6.9932,6.9705,6.9709,6.9713,6.9874,0,6.9055,6.9207,6.9201,6.9343,6.9413,6.9377,6.9453,6.9492,6.9505,6.9566,6.9579,6.965,6.9597,6.962,6.9679,6.9695,6.9785,6.9684,6.9771,6.9774,6.9757,6.996,6.999,7.014,6.9895,6.9899,6.9901,0,6.9261,6.9315,6.9464,6.9504,6.9534,6.9602,6.9663,6.9723,6.9767,6.9772,6.9814,6.9796,6.9885,6.9813,6.9934,6.9865,6.9901,6.9915,6.992,6.9926,6.9844,6.9969,7.0189,7.021,6.9934,6.9932,6.9929,0,6.9395,6.9506,6.9609,6.9635,6.9685,6.9734,6.9757,6.9797,6.9838,6.9892,6.9918,6.9983,7.0017,7.0067,7.0067,7.0015,7.0189,7.0117,7.0194,7.0194,7.023,7.0227,7.0456,7.0258,7.0257,7.0257,7.0257,0,6.9572,6.9664,6.9669,6.9732,6.9834,6.9828,6.9928,6.9947,6.9983,7.0049,7.0023,7.0085,7.0082,7.0145,7.0146,7.0245,7.0262,7.0267,7.0266,7.0268,7.0267,7.0289,7.0278,7.0263,7.0262,7.026,7.0259,0,6.9738,6.9745,6.9855,6.9894,6.9906,6.9979,7.0012,7.0072,7.0082,7.0166,7.0185,7.0201,7.0274,7.0279,7.0365,7.0365,7.0484,7.0473,7.0469,7.0466,7.0542,7.0533,7.079,7.0823,7.0606,7.0608,7.061,0,6.9849,6.9919,6.9965,7.0007,7.0033,7.0102,7.0143,7.014,7.0184,7.024,7.0293,7.0364,7.042,7.0538,7.0557,7.0622,7.061,7.0696,7.062,7.0619,7.0609,7.0603,7.0609,7.071,7.0712,7.0714,7.0716,0,7.0045,7.0045,7.0106,7.0169,7.0219,7.0268,7.0314,7.035,7.0352,7.0404,7.0478,7.0521,7.0608,7.0678,7.0741,7.0765,7.0741,7.074,7.0761,7.0762,7.0756,7.0758,7.0507,7.0734,7.0732,7.073,7.0729,7.0729,7.0185,7.0245,7.0287,7.0355,7.0389,7.0433,7.0491,7.0508,7.057,7.064,7.0635,7.0716,7.0759,7.0842,7.0871,7.0934,7.0905,7.0936,7.0943,7.095,7.0957,7.0749,7.0946,7.0946,7.0945,7.0945,7.0945,0,7.0377,7.0403,7.0466,7.0531,7.0585,7.0558,7.0608,7.0654,7.0727,7.0769,7.0824,7.0909,7.0977,7.1002,7.1069,7.1115,7.1105,7.1132,7.1127,7.1133,7.098,7.0954,7.1139,7.1139,7.1138,7.1138,7.1138,7.1138,7.0484,7.0583,7.0588,7.0704,7.0729,7.0809,7.0839,7.0879,7.0912,7.1008,7.1064,7.108,7.1115,7.1184,7.1245,7.125,7.1275,7.1306,7.1307,7.1163,7.1144,7.1125,7.11,7.1312,7.1312,7.1453,7.1455,7.1456]},{"header":{"parameterUnit":"m.s-1","parameterCategory":1,"la1":30.2991,"la2":30.254,"lo1":-89.0895,"lo2":-89.0444,"dy":0.0017,"dx":0.0017,"nx":28,"ny":28,"refTime":"2024-09-25T21:00:00:Z","depth":0,"parameterNumber":3,"parameterNumberName":"V-component_of_WINDS"},"data":[0,0,0,0,0,0,0,0,0,0,0,0,0,0,0,0,0,0,0,0,0,0,0,0,0,0,0,0,0,0,0,0,0,0,0,0,0,0,0,0,0,0,0,0,0,0,0,0,0,0,0,0,0,0,0,0,0,0,2.5125,2.5126,0,2.5215,2.5216,2.5217,2.5259,2.5259,2.5259,2.5259,2.5348,2.5351,2.5353,0,0,0,0,0,0,0,0,0,0,0,0,0,2.4986,2.4988,2.5125,2.5126,2.5127,2.5214,2.5216,2.5217,2.5259,2.5259,2.5259,2.5259,2.5348,2.535,2.5353,0,0,0,0,0,0,0,0,0,0,0,0,0,2.5058,2.4989,2.5124,2.5159,2.5163,2.5214,2.5216,2.5217,2.5259,2.5259,2.5259,2.5259,2.5347,2.535,2.5354,2.5377,0,0,2.5365,2.5366,0,0,0,0,0,0,0,0,2.5054,2.5063,2.5152,2.5156,2.5161,2.5226,2.52,2.5271,2.5259,2.5222,2.5259,2.5259,2.5307,2.5314,2.5331,2.5381,2.5385,2.5365,2.5367,2.5369,2.537,0,0,0,0,0,0,0,2.5049,2.5059,2.516,2.5154,2.5159,2.5168,2.5178,2.5213,2.5264,2.5226,2.5229,2.5239,2.531,2.5328,2.5334,2.5387,2.5365,2.5368,2.537,2.5372,2.5459,2.546,0,0,0,0,0,0,2.5039,2.5055,2.5157,2.5163,2.5106,2.5171,2.5182,2.5205,2.5264,2.5273,2.5239,2.5241,2.5321,2.5329,2.5337,2.5368,2.5369,2.5372,2.5374,2.5459,2.5459,2.546,0,0,0,0,0,0,2.5036,2.5047,2.5154,2.511,2.5124,2.5173,2.5198,2.5207,2.5225,2.5274,2.5283,2.5248,2.5322,2.5332,2.5367,2.5372,2.5374,2.5377,2.5459,2.5459,2.546,2.543,0,0,0,0,0,0,2.5031,2.5046,2.5057,2.511,2.5126,2.5183,2.5199,2.5208,2.5231,2.5234,2.5285,2.5293,2.5322,2.5361,2.537,2.5377,2.538,2.5459,2.5459,2.5459,2.5431,2.5429,2.5428,0,0,0,0,0,2.5026,2.5044,2.5057,2.5069,2.5141,2.5183,2.5193,2.5227,2.5231,2.5242,2.5273,2.5292,2.5369,2.5364,2.5375,2.5383,2.5459,2.5459,2.5459,2.5432,2.543,2.5428,0,0,0,0,0,0,2.499,2.5052,2.5067,2.5103,2.5137,2.5191,2.5205,2.5224,2.5257,2.5259,2.5298,2.5309,2.534,2.5365,2.5358,2.5408,2.5416,2.5418,2.5391,2.539,2.5388,2.5382,2.5383,0,0,0,0,0,2.4986,2.5017,2.5069,2.5096,2.5112,2.5155,2.5175,2.5198,2.5236,2.525,2.5284,2.5319,2.5351,2.5372,2.5404,2.5434,2.5446,2.5445,2.5443,2.5442,2.5443,2.546,2.546,2.5461,2.5461,2.5461,0,0,2.4978,2.5016,2.5033,2.5089,2.5119,2.5149,2.5168,2.5198,2.5221,2.5255,2.529,2.5316,2.5357,2.539,2.5406,2.5411,2.5446,2.5442,2.5441,2.5443,2.5461,2.5461,2.5461,2.5461,2.5461,2.5461,0,0,2.498,2.5012,2.5037,2.5066,2.5111,2.514,2.5145,2.5196,2.5214,2.5251,2.5277,2.5303,2.5358,2.5386,2.5407,2.5417,2.5435,2.5426,2.5419,2.5435,2.5435,2.5435,2.5438,2.5439,2.5428,2.5428,2.5428,0,2.4964,2.5012,2.5048,2.5077,2.51,2.5133,2.5158,2.5185,2.5237,2.5252,2.5257,2.5326,2.5356,2.5395,2.5398,2.5414,2.5421,2.5421,2.5432,2.5433,2.5433,2.5437,2.5438,2.5426,2.5427,2.5427,2.5427,0,2.499,2.5022,2.5037,2.5088,2.5113,2.514,2.5179,2.5199,2.5219,2.5247,2.5282,2.5319,2.5359,2.537,2.539,2.5412,2.5413,2.5425,2.5434,2.5431,2.5435,2.5437,2.5424,2.5425,2.5425,2.5426,0,0,2.4972,2.5042,2.5047,2.507,2.5121,2.5146,2.5173,2.5213,2.523,2.5264,2.5288,2.5333,2.5344,2.5368,2.5391,2.5405,2.541,2.5414,2.5416,2.5412,2.5435,2.5426,2.5427,2.5422,2.5422,2.5422,2.5431,0,2.4981,2.5034,2.5066,2.5105,2.5134,2.5165,2.5189,2.5222,2.5248,2.5275,2.5303,2.5334,2.5346,2.5361,2.5376,2.5406,2.5415,2.5406,2.5443,2.5444,2.5432,2.5429,2.5421,2.5428,2.5433,2.5433,2.5434,0,2.4998,2.5033,2.5075,2.5122,2.5135,2.5157,2.5195,2.5221,2.5259,2.5276,2.5303,2.5326,2.5355,2.536,2.54,2.5393,2.541,2.5427,2.5428,2.5433,2.5439,2.5434,2.5431,2.5431,2.5436,2.5436,2.5436,0,2.4981,2.5037,2.507,2.5089,2.5144,2.5158,2.5182,2.5219,2.5241,2.5274,2.5288,2.5323,2.5343,2.5369,2.5401,2.5402,2.5437,2.5446,2.5452,2.5451,2.5458,2.5457,2.5457,2.5469,2.5469,2.5468,2.5468,0,2.4987,2.5011,2.5063,2.5083,2.511,2.5147,2.5173,2.5198,2.5231,2.5256,2.5284,2.5306,2.5346,2.5372,2.5397,2.5426,2.5434,2.5449,2.5455,2.5446,2.5444,2.5458,2.5459,2.5469,2.5469,2.5469,2.5469,0,2.4973,2.5008,2.5045,2.5095,2.5108,2.5126,2.5167,2.5187,2.5214,2.5244,2.5253,2.5295,2.5327,2.5361,2.5405,2.5422,2.5449,2.5458,2.5437,2.5441,2.5445,2.5444,2.5453,2.5456,2.5465,2.5465,2.5465,0,2.4975,2.4994,2.5046,2.5064,2.5088,2.5117,2.5139,2.5175,2.5196,2.524,2.5254,2.5289,2.5319,2.5369,2.5402,2.5435,2.5445,2.5446,2.545,2.5441,2.5445,2.5443,2.5445,2.5445,2.5445,2.5444,2.5444,0,2.4974,2.499,2.5022,2.5059,2.5084,2.5115,2.5146,2.516,2.5201,2.5223,2.5258,2.5281,2.5325,2.5359,2.5396,2.5419,2.5438,2.5442,2.5446,2.5437,2.5424,2.5431,2.5433,2.5442,2.5442,2.5443,2.5443,2.5443,2.4968,2.4987,2.5025,2.5059,2.5086,2.5115,2.5136,2.5165,2.5194,2.5234,2.5252,2.5286,2.5322,2.5374,2.5396,2.5422,2.5427,2.5432,2.5433,2.5434,2.5432,2.542,2.5429,2.5429,2.5429,2.5429,2.5429,0,2.4969,2.4995,2.5026,2.5069,2.5095,2.5111,2.5146,2.5166,2.5196,2.5228,2.5257,2.5295,2.5327,2.5363,2.5397,2.5411,2.542,2.5419,2.5418,2.5423,2.5425,2.5419,2.541,2.541,2.541,2.541,2.541,2.541,2.4972,2.5005,2.5025,2.507,2.5096,2.513,2.5149,2.5174,2.52,2.5242,2.5269,2.5292,2.5325,2.5362,2.5392,2.5401,2.5412,2.5408,2.542,2.5421,2.5423,2.5424,2.5419,2.541,2.541,2.5416,2.5416,2.5416]}]]